Location: M?digepalle
(16.1753°N, 80.3496°E)
Time: 08:33:53
(UTC+00:00)

Cosmos 1745 Rocket - Pass Details

Date: 29 October 2020
Orbit: 953 x 997 km, 83.0° (Epoch: 27 November)

Event Time Altitude Azimuth Distance (km) Brightness Sun altitude
Rises 13:02:04 0° 5° (N) 3,695 6.9 -13.1°
Reaches altitude 10° 13:04:41 10° 11° (N) 2,750 6.2 -13.7°
Maximum altitude 13:10:46 49° 85° (E) 1,261 4.2 -15.2°
Drops below altitude 10° 13:16:51 10° 158° (SSE) 2,756 6.2 -16.6°
Sets 13:19:27 0° 164° (SSE) 3,704 7.0 -17.2°
